Regional Weather Roundup
Issued by NWS Wakefield, VA

Home | Current Version | Previous Version | Text Only | Print | Product List | Glossary On
Versions: 1 2 3 4 5 6 7 8 9 10 11 12 13 14 15 16 17 18 19 20 21 22 23 24 25 26 27 28 29 30 31 32 33 34 35 36 37 38 39 40 41 42 43 44 45 46 47 48 49 50
000
ASUS41 KAKQ 020415
RWRAKQ

REGIONAL WEATHER ROUNDUP
NATIONAL WEATHER SERVICE WAKEFIELD VA
1200 AM EDT WED SEP 02 2015

Note: "fair" indicates few or no clouds below 12,000 feet with no
significant weather and/or obstructions to visibility. * = Denotes
station may not report precipitation (e.g., rain,snow,etc.),
thunder or fog.

VAZ042-051-052>054-056-020500-
NORTHERN VIRGINIA

CITY           SKY/WX    TMP DP  RH WIND       PRES   REMARKS
WASH NATIONAL  MOCLDY    80  74  81 S3        30.05S
DULLES         MOCLDY    74  68  81 CALM      30.06S
FORT BELVOIR   PTCLDY    73  71  93 CALM      30.05S
QUANTICO       PTCLDY    77  73  87 NW6       30.05S
FREDERICKSBRG* CLEAR     75  70  84 CALM      30.04S
STAFFORD*      PTCLDY    70  68  95 CALM      30.09S FOG
WARRENTON      PTCLDY    69  68  96 CALM      30.05S
CULPEPER*      PTCLDY    69  68  96 CALM      30.07S
MANASSAS*      MOCLDY    73  72  94 CALM      30.05S
LEESBURG*      MOCLDY    81  70  69 CALM      30.07S
WINCHESTER     CLOUDY    77  68  73 CALM      30.08R
FRONT ROYAL*   MOCLDY    73  68  83 S5        30.07S
LURAY*         CLOUDY    72  66  83 CALM      30.10S
$$

VAZ048-049-060>072-079>083-020500-
CENTRAL AND SOUTH CENTRAL VIRGINIA

CITY           SKY/WX    TMP DP  RH WIND       PRES   REMARKS
RICHMOND       PTCLDY    76  69  79 CALM      30.06R
CHESTERFIELD*  FAIR      75  61  60 CALM      30.08R
PETERSBURG*    CLEAR     70  70 100 CALM      30.08S FOG
HANOVER        CLEAR     72  70  93 CALM      30.08R
TAPPAHANNOCK*  CLEAR     73  69  86 CALM      30.07R
QUINTON*       FAIR      72  71  96 CALM      30.06R
CHARLOTTSVILLE MOCLDY    76  71  85 CALM      30.07F
GORDONSVILLE*  FAIR      71  69  94 CALM      30.06S
ORANGE*        PTCLDY    72  70  94 CALM      30.08S
LOUISA*        CLEAR     72  66  83 CALM      30.06S
BUMPASS*       FAIR      72  69  91 CALM      30.07R
FARMVILLE*     PTCLDY    74  73  98 CALM      30.07R
CREWE*         MOCLDY   N/A N/A N/A CALM      30.07S
FORT PICKETT*  FAIR      73  70  91 SW3       30.08S
CHASE CITY*    FAIR      74  74  99 CALM      30.08F
CLARKSVILLE*   FAIR      72  72 100 CALM      30.07S
SOUTH HILL*    CLEAR     69  68  97 CALM      30.14R
LAWRENCEVILLE* FAIR      72  72 100 CALM      30.08R
EMPORIA*       CLEAR     68  68 100 CALM      30.09R
$$

VAZ088>098-020500-
SOUTHEAST VIRGINIA

CITY           SKY/WX    TMP DP  RH WIND       PRES   REMARKS
NORFOLK        CLEAR     74  71  91 S5        30.06R
VIRGINIA BEACH CLEAR     77  70  79 CALM      30.05S
NORFOLK NAVAL  PTCLDY    76  71  85 S5        30.07S
WEST POINT*    CLEAR     74  70  87 CALM      30.08R
SALUDA*        FAIR      74  71  89 S3        30.05S
NEWPORT NEWS   CLEAR     71  68  90 CALM      30.06S
LANGLEY AFB    CLEAR     73  71  92 W2        30.05S
FORT EUSTIS    CLEAR     75  75 100 VRB1      30.04S
WILLIAMSBURG*  CLEAR     75  73  94 CALM      30.07S
HR EXEC AP*      N/A     66  64  94 CALM      30.09R
FRANKLIN*      CLEAR     70  69  98 CALM      30.07S
WAKEFIELD      CLEAR     72  69  90 CALM      30.07R
$$

VAZ020-022-025-037-045-020500-
WEST CENTRAL AND SOUTHWEST VIRGINIA

CITY           SKY/WX    TMP DP  RH WIND       PRES   REMARKS
STAUNTON*      CLOUDY    76  68  75 CALM      30.13S
WAYNESBORO*    CLOUDY    75  67  77 S3        30.13S
HOT SPRINGS VA CLOUDY    70  61  74 NW6       30.26S
LYNCHBURG      MOCLDY    71  67  87 S5        30.11S
DANVILLE       CLEAR     73  68  84 CALM      30.09S
SOUTH BOSTON*  FAIR      70  69  95 CALM      30.08S
MARTINSVILLE   CLOUDY    72  72 100 CALM      30.14S
ROANOKE        PTCLDY    75  68  78 CALM      30.14S
BLACKSBURG     CLEAR     67  67  97 CALM      30.22S
DUBLIN*        CLOUDY    68  66  94 CALM      30.20S
MARION*        PTCLDY    65  64  94 CALM      30.24S FOG
HILLSVILLE*    CLOUDY    71  65  80 CALM      30.22R
RICHLANDS*     MOCLDY    71  36  28 CALM      30.22F
WISE*          PTCLDY    68  66  94 CALM      30.24R
ABINGDON*      PTCLDY    71  65  82 CALM      30.18F
$$

MDZ021>025-VAZ099-100-020500-
SOUTHERN MARYLAND AND THE DELMARVA PENINSULA

CITY           SKY/WX    TMP DP  RH WIND       PRES   REMARKS
PATUXENT RIVER MOCLDY    75  71  87 SW3       30.04S
BAY BRIDGE APT   N/A     77  73  88 CALM      30.05S
LEONARDTOWN    NOT AVBL
DOVER          CLEAR     76  74  94 SW2       30.03S
GEORGETOWN     CLEAR     72  70  93 CALM      30.06R
EASTON         NOT AVBL
CAMBRIDGE      PTCLDY    73  68  83 CALM      30.05S
SALISBURY      PTCLDY    71  70  96 CALM      30.05S FOG
OCEAN CITY     CLEAR     71  69  93 CALM      30.05S
WALLOPS ISLAND PTCLDY    75  72  90 CALM      30.05F
ACCOMACK*      PTCLDY    68  68 100 SW3       30.05S
$$

NCZ012>017-030>032-020500-
NORTH CENTRAL AND EASTERN NORTH CAROLINA

CITY           SKY/WX    TMP DP  RH WIND       PRES   REMARKS
ROANOKE RAPIDS FAIR      70  70 100 CALM      30.08R
RALEIGH        PTCLDY    72  69  90 CALM      30.09R
ELIZABETH CITY PTCLDY    72  72 100 CALM      30.06F
AHOSKIE*       CLEAR     69  68  97 CALM      30.08R FOG
EDENTON*       PTCLDY    71  70  95 CALM      30.07S
CURRITUCK*     PTCLDY    74  71  91 CALM      30.07S
KILL DEVIL HLS PTCLDY    74  69  83 CALM      30.05F
MANTEO         PTCLDY    73  72  98 CALM      30.06F
CAPE HATTERAS  FAIR      74  72  93 CALM      30.06F
TARBORO*       FAIR      70  69  96 CALM      30.09R FOG
GOLDSBORO      CLEAR     73  71  92 CALM      30.06S
WASHINGTON     CLEAR     72  71  96 CALM      30.07S
GREENVILLE     CLEAR     72  72 100 CALM      30.08S FOG
NEW BERN       CLEAR     73  71  93 CALM      30.09R
WILMINGTON     PTCLDY    75  73  93 S5        30.08S
$$

VAZ048-020500-
ELSEWHERE

CITY           SKY/WX    TMP DP  RH WIND       PRES   REMARKS
HARRISBURG PA  PTCLDY    72  66  81 CALM      30.06R
BALTIMORE      PTCLDY    75  70  84 CALM      30.05R
ANNAPOLIS      CLEAR     77  74  90 CALM      30.04S
ANDREWS AFB    PTCLDY    73  68  84 S2        30.05R
PHILADELPHIA   PTCLDY    76  70  82 SE3       30.05F
HENDERSON NC   CLEAR     72  68  88 SW3       30.09S
GREENSBORO     PTCLDY    77  65  66 CALM      30.10S
ROCKY MOUNT    CLEAR     72  70  93 CALM      30.08S
$$

VAZ100-020500-
MARINE

STATION/POSITION TIME  TEMP    WIND        PRES    WAVE   SWELL
                       AIR SEA DIR/SP/G            HT/PER HT/PER
                 (UTC) (F)     (DEG/KT/KT) (MB)    (FT/S) (FT/S)
BRANDYWINE LGT   0300   77 76  210/  7/  8 1017.6F
CAPE MAY NJ      0300   74 81   80/  2/  4 1017.2S
LEWES DE         0300   76 76  230/  3/  4 1017.2S
15NM E FENWICK I 0350   78 79  220/  4/  6 1017.5R   2/ 7   2/ 7
OCEAN-CITY-INLET 0300   77 78  260/  3/  4 1016.6S
GOOSES REEF MD   0400   81 81  210/  4/  6 1018.4R
COVE POINT MD    0300   79     230/  5/  6 1018.0R
SOLOMONS ISLAND  0300      81                N/A
BISHOPS HEAD MD  0300   80 83  200/  5/  7 1016.6R
PINEY POINT MD   0305          230/  7/  8   N/A
POTOMAC MD       0400   80 80  230/  8/ 10 1016.4S   1
CAMBRIDGE MD     0300   78 81  200/  3/  6 1016.5R
LEWISETTA VA     0300   79 81  220/  5/  6 1017.0S
RAPPAHANNOCK LGT 0300          190/  7/  8 1018.1F
STINGRAY PT      0400   79 80  200/  8/ 10 1018.1R   0
YORK RVR RNG VA  0300   79     230/  4/  4 1017.1F
YORKTOWN VA      0300   77 81  190/  3/  5 1017.3F
JAMESTOWN VA     0400   78 81  180/  4/  6   N/A
DOMINION TERM VA 0300   79     180/  5/  6 1017.7S
KIPTOPEKE VA     0300      80  150/  4/  5   N/A
CHES BAY BRIDGE  0300   77 79  150/  6/  7 1017.4F
CAPE HENRY VA    0300   75     180/  5/  6   N/A
CHESAPEAKE LGHT  0300   77     200/  8/  8 1018.5F
WILLOUBY STN VA  0300   78      10/  3/  4 1018.6F
CAPE HENRY BUOY  0328      80                N/A     2/11
1ST LANDING BUOY 0400      79              1017.4R   1/ 4
CAPE CHARLES BUO 0326      80                N/A     1/10   2/10
OFFSHORE WE BUOY 0311      79                N/A     2/10   2/10
64NM E OF VA BCH 0350   78 79  250/  2/  2 1017.6R   2/ 9   2/ 9
DUCK PIER NC     0300   79 78  140/  4/  5 1017.3F
44100 DUCK FRF   0324      79                N/A     2/10
44056 DUCK FRF   0311      81                N/A     2/10
OREGON INLET NC  0300   77 83   60/  2/  2 1017.9F
HATTERAS NC      0300   79 83   CALM  /  1 1017.9S
DIAMOND SHLS NC  0350   80 84  280/  6/  8 1018.0S   2/ 8   2/ 8
CAPE LOOKOUT NC  0400   79     270/  8/  9 1018.0R
$$


USA.gov is the U.S. government's official web portal to all federal, state and local government web resources and services.